QPF
0.00 0.00 0.00 0.00 0.00 0.00 0.00 0.00 0.00 0.00 0.00 0.00 0.00 0.00 0.00 0.00 0.00 0.00 0.00 0.00 0.00 0.00 0.00 0.00 0.00 0.00 0.00 0.00 0.00 0.00 0.00 0.00 0.00 0.00 0.00 0.00 0.00 0.00 0.00 0.00 0.00 0.00 0.00 0.00
0.00 0.00 0.00 0.00 0.00 0.00 0.00 0.00 0.00 0.00 0.00 0.00 0.00 0.00 0.00 0.00 0.00 0.00 0.00 0.00 0.00 0.00 0.00 0.00 0.00 0.00 0.00 0.00 0.00 0.00 0.00 0.00 0.00 0.00 0.00 0.00 0.00 0.00 0.00 0.00 0.00 0.00 0.00 0.00
0.00 0.00 0.00 0.00 0.00 0.00 0.00 0.00 0.00 0.00 0.00 0.00 0.00 0.00 0.00 0.00 0.00 0.00 0.00 0.00 0.00 0.00 0.00 0.00 0.00 0.00 0.00 0.00 0.00 0.00 0.00 0.00 0.00 0.00 0.00 0.00 0.00 0.00 0.00 0.00 0.00 0.00 0.00 0.00
0.00 0.00 0.00 0.00 0.00 0.00 0.00 0.00 0.00 0.00 0.00 0.00 0.00 0.00 0.00 0.00 0.00 0.00 0.00 0.00 0.00 0.00 0.00 0.00 0.00 0.00 0.00 0.00 0.00 0.00 0.00 0.00 0.00 0.00 0.00 0.00 0.00 0.00 0.00 0.00 0.00 0.00 0.00 0.00
0.00 0.00 0.00 0.00 0.00 0.00 0.00 0.00 0.00 0.00 0.00 0.00 0.00 0.00 0.00 0.00 0.00 0.00 0.00 0.00 0.00 0.00 0.00 0.00 0.00 0.00 0.00 0.00 0.00 0.00 0.00 0.00 0.00 0.00 0.00 0.00 0.00 0.00 0.00 0.00 0.00 0.00 0.00 0.00
0.00 0.00 0.00 0.00 0.00 0.00 0.00 0.00 0.00 0.00 0.00 0.00 0.00 0.00 0.00 0.00 0.00 0.00 0.00 0.00 0.00 0.00 0.00 0.00 0.00 0.00 0.00 0.00 0.00 0.00 0.00 0.00 0.00 0.00 0.00 0.00 0.00 0.00 0.00 0.00 0.00 0.00 0.00 0.00
0.00 0.00 0.00 0.00 0.00 0.00 0.00 0.00 0.00 0.00 0.00 0.00 0.00 0.00 0.00 0.00 0.00 0.00 0.00 0.00 0.00 0.00 0.00 0.00 0.00 0.00 0.00 0.00 0.00 0.00 0.00 0.00 0.00 0.00 0.00 0.00 0.00 0.00 0.00 0.00 0.00 0.00 0.00 0.00
0.00 0.00 0.00 0.00 0.00 0.00 0.00 0.00 0.00 0.00 0.00 0.00 0.00 0.00 0.00 0.00 0.00 0.00 0.00 0.00 0.00 0.00 0.00 0.00 0.00 0.00 0.00 0.00 0.00 0.00 0.00 0.00 0.00 0.00 0.00 0.00 0.00 0.00 0.00 0.00 0.00 0.00 0.00 0.00
0.00 0.00 0.00 0.00 0.00 0.00 0.00 0.00 0.00 0.00 0.00 0.00 0.00 0.00 0.00 0.00 0.00 0.00 0.00 0.00 0.00 0.00 0.00 0.00 0.00 0.00 0.00 0.00 0.00 0.00 0.00 0.00 0.00 0.00 0.00 0.00 0.00 0.00 0.00 0.00 0.00 0.00 0.00 0.00
0.00 0.00 0.00 0.00 0.00 0.00 0.00 0.00 0.00 0.00 0.00 0.00 0.00 0.00 0.00 0.00 0.00 0.00 0.00 0.00 0.00 0.00 0.00 0.00 0.00 0.00 0.00 0.00 0.00 0.00 0.00 0.00 0.00 0.00 0.00 0.00 0.00 0.00 0.00 0.00 0.00 0.00 0.00 0.00
0.00 0.00 0.00 0.00 0.00 0.00 0.00 0.00 0.00 0.00 0.00 0.00 0.00 0.00 0.00 0.00 0.00 0.00 0.00 0.00 0.00 0.00 0.00 0.00 0.00 0.00 0.00 0.00 0.00 0.00 0.00 0.00 0.00 0.00 0.00 0.00 0.00 0.00 0.00 0.00 0.00 0.00 0.00 0.00
0.00 0.00 0.00 0.00 0.00 0.00 0.00 0.00 0.00 0.00 0.00 0.00 0.00 0.00 0.00 0.00 0.00 0.00 0.00 0.00 0.00 0.00 0.00 0.00 0.00 0.00 0.00 0.00 0.00 0.00 0.00 0.00 0.00 0.00 0.00 0.00 0.00 0.00 0.00 0.00 0.00 0.00 0.00 0.00
0.00 0.00 0.00 0.00 0.00 0.00 0.00 0.00 0.00 0.00 0.00 0.00 0.00 0.00 0.00 0.00 0.00 0.00 0.00 0.00 0.00 0.00 0.00 0.00 0.00 0.00 0.00 0.00 0.00 0.00 0.00 0.00 0.00 0.00 0.00 0.00 0.00 0.00 0.00 0.00 0.00 0.00 0.00 0.00
0.00 0.00 0.00 0.00 0.00 0.00 0.00 0.00 0.00 0.00 0.00 0.00 0.00 0.00 0.00 0.00 0.00 0.00 0.00 0.00 0.00 0.00 0.00 0.00 0.00 0.00 0.00 0.00 0.00 0.00 0.00 0.00 0.00 0.00 0.00 0.00 0.00 0.00 0.00 0.00 0.00 0.00 0.00 0.00
0.00 0.00 0.00 0.00 0.00 0.00 0.00 0.00 0.00 0.00 0.00 0.00 0.00 0.00 0.00 0.00 0.00 0.00 0.00 0.00 0.00 0.00 0.00 0.00 0.00 0.00 0.00 0.00 0.00 0.00 0.00 0.00 0.00 0.00 0.00 0.00 0.00 0.00 0.00 0.00 0.00 0.00 0.00 0.00
0.00 0.00 0.00 0.00 0.00 0.00 0.00 0.00 0.00 0.00 0.00 0.00 0.00 0.00 0.00 0.00 0.00 0.00 0.00 0.00 0.00 0.00 0.00 0.00 0.00 0.00 0.00 0.00 0.00 0.00 0.00 0.00 0.00 0.00 0.00 0.00 0.00 0.00 0.00 0.00 0.00 0.00 0.00 0.00
0.00 0.00 0.00 0.00 0.00 0.00 0.00 0.00 0.00 0.00 0.00 0.00 0.00 0.00 0.00 0.00 0.00 0.00 0.00 0.00 0.00 0.00 0.00 0.00 0.00 0.00 0.00 0.00 0.00 0.00 0.00 0.00 0.00 0.00 0.00 0.00 0.00 0.00 0.00 0.00 0.00 0.00 0.00 0.00
0.00 0.00 0.00 0.00 0.00 0.00 0.00 0.00 0.00 0.00 0.00 0.00 0.00 0.00 0.00 0.00 0.00 0.00 0.00 0.00 0.00 0.00 0.00 0.00 0.00 0.00 0.00 0.00 0.00 0.00 0.00 0.00 0.00 0.00 0.00 0.00 0.00 0.00 0.00 0.00 0.00 0.00 0.00 0.00
0.00 0.00 0.00 0.00 0.00 0.00 0.00 0.00 0.00 0.00 0.00 0.00 0.00 0.00 0.00 0.00 0.00 0.00 0.00 0.00 0.00 0.00 0.00 0.00 0.00 0.00 0.00 0.00 0.00 0.00 0.00 0.00 0.00 0.00 0.00 0.00 0.00 0.00 0.00 0.00 0.00 0.00 0.00 0.00
0.00 0.00 0.01 0.00 0.01 0.00 0.00 0.00 0.00 0.00 0.00 0.00 0.00 0.00 0.00 0.00 0.00 0.00 0.00 0.00 0.00 0.00 0.00 0.00 0.00 0.00 0.00 0.00 0.00 0.00 0.00 0.00 0.00 0.00 0.00 0.00 0.00 0.00 0.00 0.00 0.00 0.00 0.00 0.00
0.00 0.00 0.01 0.01 0.02 0.01 0.00 0.00 0.00 0.00 0.00 0.00 0.00 0.00 0.00 0.00 0.00 0.00 0.00 0.00 0.00 0.00 0.00 0.00 0.00 0.00 0.00 0.00 0.00 0.00 0.00 0.00 0.00 0.00 0.00 0.00 0.00 0.00 0.00 0.00 0.00 0.00 0.00 0.00
0.00 0.00 0.00 0.00 0.01 0.01 0.00 0.00 0.00 0.00 0.00 0.00 0.00 0.00 0.00 0.00 0.00 0.00 0.00 0.00 0.00 0.00 0.00 0.00 0.00 0.00 0.00 0.00 0.00 0.00 0.00 0.00 0.00 0.00 0.00 0.00 0.00 0.00 0.00 0.00 0.00 0.00 0.00 0.00
0.00 0.00 0.00 0.00 0.00 0.00 0.00 0.00 0.00 0.00 0.00 0.00 0.00 0.00 0.00 0.00 0.00 0.00 0.00 0.00 0.00 0.00 0.00 0.00 0.00 0.00 0.00 0.00 0.00 0.00 0.00 0.00 0.00 0.00 0.00 0.00 0.00 0.00 0.00 0.00 0.00 0.00 0.00 0.00
0.00 0.00 0.00 0.00 0.00 0.00 0.00 0.00 0.00 0.00 0.00 0.00 0.00 0.00 0.00 0.00 0.00 0.00 0.00 0.00 0.00 0.00 0.00 0.00 0.00 0.00 0.00 0.00 0.00 0.00 0.00 0.00 0.00 0.00 0.00 0.00 0.00 0.00 0.00 0.00 0.00 0.00 0.00 0.00
0.00 0.00 0.00 0.00 0.00 0.00 0.00 0.00 0.00 0.00 0.00 0.00 0.00 0.00 0.00 0.00 0.00 0.00 0.00 0.00 0.00 0.00 0.00 0.00 0.00 0.00 0.00 0.00 0.00 0.00 0.00 0.00 0.00 0.00 0.00 0.00 0.00 0.00 0.00 0.00 0.00 0.00 0.00 0.00
0.00 0.00 0.00 0.00 0.00 0.00 0.00 0.00 0.00 0.00 0.00 0.00 0.00 0.00 0.00 0.00 0.00 0.00 0.00 0.00 0.00 0.00 0.00 0.00 0.00 0.00 0.00 0.00 0.00 0.00 0.00 0.00 0.00 0.00 0.00 0.00 0.00 0.00 0.00 0.00 0.00 0.00 0.00 0.00
MSLP
1013.87 1014.58 1014.79 1014.78 1014.87 1015.03 1015.32 1015.46 1015.46 1014.70 1014.67 1014.85 1014.59 1013.65 1011.82 1012.15 1012.33 1012.73 1013.51 1014.00 1014.43 1014.73 1014.94 1015.81 1016.67 1017.40 1018.20 1018.82 1019.18 1019.39 1019.61 1019.63 1019.76 1019.94 1020.20 1020.45 1020.78 1021.11 1021.35 1021.27 1021.30 1021.04 1020.92 1020.76
1014.34 1014.56 1014.54 1014.70 1014.83 1015.08 1015.32 1015.50 1015.35 1014.75 1014.77 1015.05 1014.32 1013.42 1011.31 1011.19 1011.35 1011.72 1012.47 1013.43 1013.83 1014.51 1015.06 1015.88 1016.68 1017.32 1017.83 1018.44 1019.03 1019.35 1019.46 1019.60 1019.70 1019.82 1020.13 1020.19 1020.62 1021.10 1021.38 1021.61 1021.49 1021.46 1021.48 1021.18
1014.29 1014.38 1014.52 1014.71 1014.93 1015.20 1015.20 1015.40 1015.37 1015.64 1015.43 1014.84 1014.59 1013.40 1011.64 1011.18 1011.12 1011.28 1011.84 1012.48 1013.27 1013.83 1014.74 1015.67 1016.53 1017.13 1017.74 1018.38 1018.92 1019.22 1019.45 1019.66 1019.78 1019.88 1020.05 1020.35 1020.57 1021.22 1021.54 1021.85 1021.80 1022.01 1021.80 1021.71
1014.24 1014.34 1014.56 1014.80 1014.99 1015.03 1015.34 1015.20 1015.53 1015.84 1016.26 1016.24 1015.23 1014.56 1012.33 1011.23 1011.22 1011.42 1011.67 1012.21 1012.79 1013.60 1014.29 1015.03 1015.96 1016.90 1017.55 1018.12 1018.81 1019.18 1019.48 1019.70 1019.94 1020.12 1020.30 1020.58 1020.90 1021.39 1021.74 1021.80 1022.16 1022.22 1022.04 1022.03
1014.10 1014.42 1014.66 1014.80 1014.60 1014.61 1015.01 1015.27 1015.66 1016.06 1016.72 1016.89 1015.75 1015.59 1012.21 1011.48 1011.33 1011.41 1011.56 1012.11 1012.53 1013.09 1013.77 1014.74 1015.56 1016.27 1017.09 1017.87 1018.70 1019.24 1019.61 1019.94 1020.21 1020.36 1020.47 1020.89 1021.28 1021.41 1021.55 1021.84 1022.15 1022.37 1022.46 1022.42
1014.33 1014.40 1014.49 1014.39 1014.47 1014.70 1015.09 1015.44 1015.82 1016.35 1017.14 1017.15 1015.15 1014.84 1012.74 1011.43 1010.54 1010.91 1011.10 1011.51 1012.27 1013.05 1013.71 1014.45 1015.25 1016.12 1016.92 1017.68 1018.63 1019.35 1019.85 1020.27 1020.44 1020.54 1020.61 1020.81 1021.25 1021.62 1021.72 1021.98 1022.32 1022.51 1022.59 1022.65
1014.51 1014.46 1014.38 1014.51 1014.87 1015.03 1015.38 1016.02 1016.72 1017.24 1017.43 1016.41 1014.92 1014.74 1011.89 1010.31 1010.22 1010.48 1011.22 1011.59 1012.16 1012.99 1013.77 1014.46 1015.41 1016.23 1017.09 1017.95 1018.70 1019.40 1019.96 1020.48 1020.63 1020.77 1020.94 1021.07 1021.30 1021.42 1021.88 1022.15 1022.36 1022.64 1022.70 1022.73
1014.82 1014.45 1014.42 1014.54 1014.59 1014.78 1015.46 1016.09 1017.12 1017.30 1017.21 1016.14 1015.35 1013.85 1011.46 1010.41 1010.54 1010.92 1011.34 1011.93 1012.53 1013.40 1013.90 1014.60 1015.34 1016.19 1017.08 1017.90 1018.62 1019.27 1019.88 1020.46 1020.77 1021.11 1021.49 1021.67 1021.69 1021.90 1022.01 1022.06 1022.08 1022.34 1022.62 1022.79
1014.52 1014.36 1014.36 1014.62 1014.75 1015.04 1015.73 1016.15 1016.26 1016.85 1016.90 1016.54 1014.52 1012.80 1011.94 1011.47 1011.33 1011.48 1011.98 1012.42 1013.09 1013.67 1014.32 1015.03 1015.77 1016.53 1017.19 1017.90 1018.50 1018.98 1019.60 1020.15 1020.58 1021.01 1021.56 1021.86 1022.02 1022.07 1022.23 1022.34 1022.50 1022.50 1022.49 1022.44
1014.32 1014.72 1014.65 1015.08 1015.25 1015.41 1015.61 1015.99 1016.44 1016.94 1017.37 1016.45 1014.37 1013.26 1012.09 1012.28 1012.60 1012.75 1013.05 1013.25 1013.64 1014.32 1015.63 1016.59 1017.42 1017.93 1018.13 1018.40 1018.82 1019.26 1019.64 1020.11 1020.56 1021.02 1021.43 1021.85 1022.00 1022.17 1022.43 1022.52 1022.69 1022.73 1022.76 1022.62
1014.58 1015.21 1015.36 1015.51 1015.36 1015.07 1016.13 1016.08 1016.34 1016.53 1017.14 1016.58 1015.52 1013.73 1012.04 1012.90 1013.84 1014.20 1014.85 1015.13 1015.37 1016.38 1017.70 1018.37 1018.94 1019.37 1019.58 1019.68 1019.83 1020.14 1020.31 1020.52 1020.79 1021.06 1021.46 1021.87 1022.06 1022.22 1022.34 1022.55 1022.55 1022.49 1022.44 1022.41
1014.63 1015.21 1015.45 1014.84 1014.46 1014.38 1014.65 1014.96 1015.38 1016.12 1016.77 1016.55 1016.11 1014.32 1013.77 1013.83 1014.66 1015.59 1016.45 1016.93 1018.07 1018.70 1019.70 1020.36 1020.62 1020.88 1021.02 1021.35 1021.32 1021.20 1020.88 1020.93 1021.11 1021.19 1021.44 1021.88 1021.99 1022.30 1022.33 1022.35 1022.40 1022.35 1022.43 1022.43
1014.79 1015.25 1015.57 1014.86 1015.12 1014.78 1014.66 1014.93 1015.32 1016.25 1016.97 1015.88 1015.92 1015.08 1015.37 1015.30 1016.49 1017.46 1017.95 1018.89 1019.70 1020.50 1021.05 1021.93 1022.05 1022.25 1022.42 1022.50 1022.42 1022.42 1022.30 1021.97 1021.78 1021.65 1021.90 1022.06 1022.25 1022.12 1022.22 1022.35 1022.46 1022.50 1022.46 1022.43
1014.85 1015.32 1015.65 1014.99 1014.21 1014.42 1014.77 1014.83 1015.34 1015.94 1016.08 1015.42 1014.62 1014.49 1015.56 1016.72 1018.30 1019.19 1019.62 1020.34 1020.85 1021.46 1021.96 1022.75 1023.06 1023.20 1023.23 1023.44 1023.22 1022.94 1022.84 1022.75 1022.59 1022.53 1022.49 1022.43 1022.23 1022.10 1022.18 1022.36 1022.40 1022.51 1022.53 1022.58
1015.66 1015.77 1015.66 1014.88 1014.58 1014.58 1014.12 1014.48 1014.97 1015.34 1015.11 1015.28 1013.93 1015.38 1016.53 1018.25 1019.46 1020.37 1020.62 1021.30 1021.66 1022.08 1022.41 1022.97 1023.48 1023.72 1023.58 1023.75 1024.21 1023.59 1023.43 1023.26 1022.93 1022.67 1022.51 1022.40 1022.43 1022.31 1022.57 1022.47 1022.39 1022.34 1022.41 1022.40
1016.02 1015.81 1015.93 1014.66 1014.91 1014.69 1013.88 1014.38 1014.50 1014.77 1014.63 1015.09 1015.32 1016.19 1018.26 1019.85 1020.87 1021.57 1021.93 1022.31 1022.55 1023.02 1023.40 1023.83 1024.13 1024.19 1024.23 1024.21 1024.23 1024.27 1023.99 1023.86 1023.47 1023.09 1022.80 1022.59 1022.46 1022.12 1022.16 1022.22 1022.17 1022.16 1022.16 1022.19
1016.00 1016.19 1016.08 1014.33 1014.62 1014.76 1014.11 1014.07 1014.31 1014.97 1016.38 1017.30 1017.85 1019.95 1020.65 1021.40 1022.41 1023.31 1023.60 1023.70 1023.75 1024.32 1024.46 1024.58 1024.82 1024.97 1024.91 1024.74 1024.76 1024.64 1024.31 1024.08 1023.53 1023.38 1022.96 1022.70 1022.42 1022.30 1022.25 1022.30 1022.22 1022.14 1022.10 1022.01
1014.60 1015.30 1015.43 1014.41 1014.99 1014.80 1014.38 1015.03 1015.34 1016.97 1019.02 1019.92 1020.62 1021.54 1022.15 1022.63 1023.69 1024.21 1024.66 1024.93 1024.77 1025.30 1025.44 1025.55 1025.65 1025.50 1025.25 1025.10 1024.95 1024.83 1024.52 1024.08 1023.68 1023.48 1023.08 1022.75 1022.57 1022.44 1022.32 1022.29 1022.23 1022.09 1021.92 1021.70
1013.26 1014.17 1014.45 1014.56 1014.51 1014.34 1015.72 1016.64 1017.75 1018.62 1021.22 1022.19 1022.65 1023.30 1023.41 1023.66 1024.17 1024.86 1025.37 1025.46 1025.66 1025.77 1026.11 1026.17 1026.20 1025.91 1025.57 1025.43 1025.40 1025.10 1024.68 1024.15 1023.94 1023.68 1023.23 1022.93 1022.72 1022.58 1022.46 1022.36 1022.15 1021.93 1021.74 1021.56
1012.31 1012.97 1013.70 1014.05 1014.72 1015.81 1017.07 1018.51 1019.64 1020.12 1021.96 1023.13 1023.78 1024.32 1024.71 1024.43 1024.67 1025.30 1025.75 1026.16 1026.23 1026.20 1026.25 1026.27 1026.15 1026.06 1025.76 1025.59 1025.37 1024.87 1024.58 1024.32 1024.10 1023.63 1023.28 1022.97 1022.74 1022.57 1022.44 1022.19 1021.97 1021.71 1021.48 1021.18
1012.99 1013.28 1013.43 1014.15 1015.24 1016.63 1019.46 1020.39 1021.08 1022.17 1023.79 1024.11 1024.70 1025.36 1025.76 1025.93 1026.28 1026.32 1026.22 1026.40 1026.56 1026.64 1026.53 1026.36 1026.35 1026.25 1025.83 1025.68 1025.08 1024.83 1024.52 1024.36 1023.88 1023.43 1023.13 1022.87 1022.62 1022.37 1022.06 1021.72 1021.48 1021.23 1021.07 1020.80
1013.17 1014.18 1014.83 1015.85 1017.44 1019.71 1021.13 1021.82 1022.91 1024.52 1025.00 1025.69 1026.14 1026.36 1026.67 1026.89 1026.87 1026.81 1026.72 1026.79 1026.87 1026.72 1026.55 1026.46 1026.39 1026.27 1026.06 1025.49 1025.14 1024.79 1024.46 1023.95 1023.58 1023.20 1022.84 1022.58 1022.34 1022.07 1021.62 1021.26 1020.92 1020.71 1020.55 1020.35
1015.31 1016.33 1017.20 1019.25 1020.71 1022.41 1023.26 1024.19 1025.10 1025.58 1026.35 1027.04 1027.47 1027.44 1027.31 1027.37 1027.37 1027.38 1027.32 1027.26 1027.15 1027.06 1026.95 1026.63 1026.51 1026.26 1025.83 1025.45 1025.12 1024.73 1024.25 1023.85 1023.48 1023.20 1022.86 1022.54 1022.13 1021.74 1021.36 1020.98 1020.62 1020.32 1020.12 1019.88
1017.76 1018.69 1019.70 1021.36 1023.36 1023.95 1024.96 1025.88 1026.22 1026.87 1027.66 1028.24 1028.43 1028.20 1027.99 1027.82 1027.78 1027.93 1027.83 1027.66 1027.47 1027.15 1026.86 1026.56 1026.39 1026.13 1025.72 1025.31 1025.09 1024.76 1024.15 1023.67 1023.36 1023.03 1022.65 1022.26 1021.87 1021.44 1020.94 1020.63 1020.28 1019.94 1019.57 1019.31
1021.32 1021.32 1021.97 1023.74 1024.87 1025.35 1026.30 1027.13 1027.65 1027.99 1028.59 1029.00 1028.92 1028.70 1028.57 1028.20 1028.39 1028.52 1028.38 1027.98 1027.50 1027.08 1026.69 1026.43 1026.15 1025.74 1025.37 1025.09 1024.81 1024.38 1023.89 1023.55 1023.20 1022.78 1022.37 1021.96 1021.55 1021.14 1020.68 1020.26 1019.93 1019.47 1018.93 1018.66
1024.06 1024.56 1025.16 1025.82 1026.12 1026.18 1027.09 1027.99 1028.41 1028.90 1029.24 1029.32 1028.92 1028.94 1028.71 1028.69 1028.81 1028.60 1028.36 1027.86 1027.38 1026.94 1026.70 1026.31 1025.98 1025.60 1025.26 1024.93 1024.54 1024.10 1023.71 1023.29 1023.01 1022.58 1022.05 1021.66 1021.16 1020.77 1020.32 1019.85 1019.29 1018.84 1018.19 1017.49
Thickness
5691 5672 5665 5673 5673 5668 5661 5655 5648 5655 5661 5655 5648 5656 5677 5670 5664 5657 5649 5645 5642 5641 5638 5626 5616 5606 5597 5588 5582 5576 5571 5567 5561 5556 5550 5544 5539 5533 5530 5529 5525 5525 5525 5524
5674 5665 5675 5672 5669 5662 5656 5648 5641 5656 5657 5648 5648 5654 5675 5673 5667 5659 5651 5643 5639 5635 5627 5618 5607 5598 5591 5583 5575 5569 5565 5560 5555 5549 5542 5538 5531 5525 5521 5517 5516 5515 5513 5513
5668 5673 5671 5667 5660 5653 5651 5643 5645 5640 5638 5642 5640 5640 5668 5668 5666 5661 5650 5645 5639 5633 5624 5614 5602 5591 5582 5574 5567 5562 5557 5551 5546 5541 5535 5529 5523 5515 5510 5506 5505 5501 5502 5501
5667 5669 5663 5658 5651 5651 5641 5647 5640 5633 5618 5613 5631 5606 5640 5656 5652 5649 5648 5639 5633 5627 5620 5610 5599 5584 5577 5569 5559 5553 5547 5541 5535 5530 5524 5519 5513 5506 5500 5497 5493 5491 5490 5490
5662 5655 5653 5648 5651 5652 5641 5639 5630 5626 5612 5606 5614 5596 5629 5649 5644 5639 5635 5630 5626 5622 5614 5604 5593 5584 5573 5562 5550 5543 5536 5529 5523 5519 5515 5507 5501 5496 5492 5487 5483 5479 5476 5475
5655 5657 5653 5649 5649 5644 5636 5630 5622 5613 5597 5583 5611 5600 5615 5628 5636 5638 5638 5628 5619 5615 5606 5596 5584 5574 5563 5552 5541 5531 5524 5517 5512 5508 5504 5499 5492 5485 5481 5477 5472 5468 5465 5464
5650 5646 5647 5644 5634 5631 5625 5610 5590 5589 5579 5592 5607 5594 5618 5640 5634 5631 5621 5621 5608 5602 5595 5585 5574 5563 5551 5539 5529 5521 5513 5505 5500 5496 5491 5486 5480 5477 5470 5465 5460 5456 5453 5451
5623 5620 5632 5634 5630 5623 5614 5605 5582 5587 5585 5590 5596 5589 5616 5624 5617 5613 5607 5601 5595 5588 5583 5575 5565 5553 5541 5530 5519 5511 5502 5494 5488 5482 5475 5470 5467 5461 5457 5454 5452 5447 5443 5439
5622 5626 5628 5624 5621 5617 5604 5588 5595 5578 5577 5568 5583 5604 5611 5605 5603 5599 5595 5591 5585 5577 5568 5561 5550 5540 5530 5518 5510 5502 5493 5485 5478 5471 5462 5457 5452 5448 5444 5440 5436 5434 5431 5428
5624 5605 5618 5609 5608 5603 5594 5590 5574 5564 5558 5560 5572 5587 5584 5594 5586 5583 5578 5576 5573 5566 5542 5529 5520 5514 5509 5504 5496 5489 5482 5473 5466 5458 5451 5444 5440 5435 5430 5426 5421 5418 5415 5413
5612 5600 5600 5597 5590 5591 5569 5568 5568 5567 5552 5554 5550 5564 5591 5581 5568 5561 5554 5553 5540 5527 5511 5504 5495 5487 5483 5480 5475 5469 5464 5457 5451 5445 5438 5430 5425 5420 5416 5411 5407 5403 5400 5398
5600 5585 5576 5588 5593 5590 5580 5571 5567 5555 5546 5542 5542 5553 5565 5560 5549 5542 5527 5525 5504 5495 5481 5472 5466 5461 5456 5451 5449 5447 5445 5441 5435 5430 5423 5416 5410 5404 5399 5395 5390 5386 5382 5379
5589 5571 5558 5573 5575 5574 5572 5570 5561 5549 5521 5542 5543 5545 5536 5525 5513 5506 5502 5488 5476 5467 5459 5447 5443 5438 5433 5428 5425 5421 5418 5417 5415 5411 5404 5398 5392 5388 5382 5376 5371 5366 5363 5360
5579 5564 5564 5564 5576 5570 5551 5552 5550 5541 5531 5544 5544 5557 5543 5503 5488 5480 5474 5461 5456 5447 5441 5431 5423 5417 5412 5408 5405 5404 5400 5395 5392 5388 5382 5377 5373 5369 5363 5357 5352 5347 5342 5339
5557 5541 5548 5560 5561 5555 5559 5553 5549 5536 5538 5533 5557 5542 5523 5481 5468 5458 5458 5448 5439 5431 5424 5416 5407 5401 5398 5391 5381 5381 5377 5373 5370 5367 5363 5358 5352 5347 5340 5336 5332 5328 5324 5321
5538 5534 5526 5543 5541 5540 5547 5545 5547 5544 5547 5540 5543 5538 5473 5452 5443 5436 5429 5424 5417 5410 5403 5396 5389 5383 5376 5371 5366 5359 5354 5349 5346 5344 5340 5336 5332 5329 5322 5317 5313 5309 5305 5302
5519 5513 5509 5540 5537 5529 5540 5544 5540 5538 5482 5480 5503 5443 5434 5431 5417 5405 5402 5397 5393 5384 5377 5372 5365 5360 5354 5349 5345 5338 5334 5328 5326 5320 5317 5313 5309 5303 5299 5295 5292 5288 5284 5281
5523 5508 5507 5526 5516 5522 5517 5491 5494 5465 5439 5435 5427 5415 5411 5411 5396 5388 5380 5370 5366 5358 5351 5346 5339 5335 5332 5328 5323 5317 5313 5308 5304 5297 5293 5290 5286 5282 5278 5274 5270 5266 5263 5261
5530 5517 5506 5508 5516 5528 5492 5465 5462 5462 5413 5401 5401 5393 5389 5389 5381 5369 5360 5351 5345 5339 5330 5322 5314 5312 5309 5303 5297 5291 5287 5283 5278 5273 5270 5267 5263 5259 5254 5249 5246 5243 5240 5237
5519 5519 5505 5504 5508 5512 5458 5432 5422 5422 5426 5389 5385 5377 5370 5373 5381 5358 5343 5333 5324 5319 5311 5303 5295 5290 5284 5278 5274 5270 5265 5259 5254 5252 5248 5243 5238 5233 5228 5225 5222 5220 5217 5217
5495 5496 5504 5506 5506 5483 5404 5400 5400 5439 5414 5372 5367 5356 5346 5341 5335 5326 5321 5313 5306 5297 5292 5287 5276 5266 5262 5257 5256 5250 5243 5235 5233 5230 5225 5219 5213 5210 5206 5204 5202 5199 5196 5195
5494 5487 5489 5487 5493 5484 5383 5392 5410 5356 5344 5335 5332 5326 5323 5315 5309 5305 5300 5292 5284 5276 5270 5262 5255 5247 5240 5238 5233 5230 5223 5218 5212 5208 5203 5198 5192 5188 5187 5185 5183 5179 5176 5174
5482 5447 5457 5415 5397 5360 5353 5347 5338 5332 5324 5316 5308 5303 5299 5294 5289 5283 5275 5265 5257 5251 5246 5240 5233 5227 5222 5216 5211 5205 5200 5195 5192 5186 5181 5175 5172 5170 5167 5165 5164 5163 5159 5156
5406 5389 5386 5378 5347 5341 5329 5318 5314 5307 5298 5287 5280 5279 5275 5269 5263 5254 5248 5243 5236 5230 5226 5219 5214 5209 5203 5196 5190 5182 5180 5177 5172 5168 5163 5159 5156 5154 5152 5149 5147 5147 5144 5141
5352 5363 5363 5340 5326 5316 5305 5294 5287 5280 5268 5258 5254 5254 5249 5247 5238 5231 5225 5219 5216 5213 5210 5203 5198 5193 5187 5180 5174 5167 5165 5160 5157 5153 5148 5145 5142 5139 5137 5136 5133 5133 5133 5131
5318 5317 5324 5306 5298 5300 5286 5273 5265 5255 5247 5243 5244 5237 5232 5226 5219 5213 5206 5201 5199 5196 5192 5187 5180 5175 5170 5165 5159 5153 5150 5146 5141 5138 5136 5131 5129 5125 5124 5123 5124 5121 5123 5124